{"data":{"norad_id":67169,"intl_designator":"2025-303G","name":"STARLINK-35839","alt_names":[],"object_type":"PAYLOAD","status":"ACTIVE","operator":null,"country":"US","launch_date":"2025-12-17","launch_site_code":"AFETR","launch_vehicle":null,"mission":null,"orbit_class":"UNKNOWN","rcs_meters":null,"size_class":null,"mass_kg":null,"dimensions":null,"purposes":["comms"],"wikipedia_slug":null,"has_3d_model":false,"image_url":null,"decayed_at":null,"tle_current":{"epoch":"2026-09-20T08:47:12.317856Z","epoch_age_seconds":90589,"freshness":"FRESH","line1":"1 67169U 25303G   26263.36611479  .00011347  00000+0  42111-3 0  9995","line2":"2 67169  42.9995 291.6991 0000645 263.1699  96.9079 15.27588761 42508","mean_motion":15.27588761,"eccentricity":6.45e-5,"inclination_deg":42.9995,"raan_deg":291.6991,"arg_perigee_deg":263.1699,"mean_anomaly_deg":96.9079,"bstar":0.00042111,"rev_number":4250,"period_min":94.266208076664,"perigee_km":482.58031776814,"apogee_km":483.46540739041,"semimajor_km":6861.1598625793,"source":"CELESTRAK","updated_at":"2026-09-21T09:00:36.111135Z"}}}